Regional Weather Roundup
Issued by NWS

Home | Current Version | Previous Version | Text Only | Print | Product List | Glossary On
Versions: 1 2 3 4 5 6 7 8 9 10 11 12 13 14 15 16 17 18 19 20 21 22 23 24 25 26 27 28 29 30 31 32 33 34 35 36 37 38 39 40 41 42 43 44 45 46 47 48 49 50
000
ASUS43 KTOP 040908
RWRKS

WEATHER ROUNDUP FOR KANSAS
NATIONAL WEATHER SERVICE GOODLAND KS
400 AM CDT FRI SEP 04 2015

NOTE:  "FAIR" INDICATES FEW OR NO CLOUDS BELOW 12,000 FEET WITH NO
SIGNIFICANT WEATHER AND/OR OBSTRUCTIONS TO VISIBILITY.

KSZ001>006-013>018-027>032-041>047-041000-
NORTHWEST KANSAS

CITY           SKY/WX    TMP DP  RH WIND       PRES   REMARKS
GOODLAND       PTCLDY    65  56  72 W9        29.84S
HAYS           MOCLDY    79  57  47 S14       29.83S
HILL CITY      PTCLDY    79  59  50 S13       29.80S
RUSSELL        MOCLDY    78  61  55 S16       29.82S
$$

KSZ061>065-074>080-084>089-041000-
SOUTHWEST KANSAS

CITY           SKY/WX    TMP DP  RH WIND       PRES   REMARKS
DODGE CITY     PTCLDY    72  57  59 S13       29.88S
ELKHART          N/A     69  53  56 S8          N/A
GARDEN CITY    CLEAR     72  57  59 S14       29.85S
GREAT BEND     PTCLDY    75  61  60 S18       29.86R
LIBERAL        PTCLDY    75  55  50 S12       29.89S
PRATT          PTCLDY    73  59  60 MISG      29.90S
$$

KSZ066>073-081>083-090>101-041000-
SOUTHEAST KANSAS

CITY           SKY/WX    TMP DP  RH WIND       PRES   REMARKS
CHANUTE        MOCLDY    73  69  87 SE7       29.93S
COFFEYVILLE    PTCLDY    72  68  87 S6        29.93R
HUTCHINSON     PTCLDY    76  62  62 S9        29.89S
MEDICINE LODGE   N/A     74  62  66 SE7       29.89R
NEWTON         MOCLDY    73  61  64 S10       29.93S
PARSONS        MOCLDY    73  69  87 CALM      29.94R
WICHITA INTL   MOCLDY    74  64  71 SE10      29.90S
WICHITA JABRA  MOCLDY    72  65  78 S8        29.90F
WICHITA MCCONL MOCLDY    72  64  74 SE7       29.91R
WINFIELD       PTCLDY    73  66  78 SE8       29.92S
$$

KSZ007>012-019>026-033>040-048>060-102>105-041000-
NORTHEAST KANSAS

CITY           SKY/WX    TMP DP  RH WIND       PRES   REMARKS
CONCORDIA      CLOUDY    75  65  70 SE9       29.86R
EMPORIA        MOCLDY    72  68  87 S13       29.92S
LAWRENCE       MOCLDY    71  68  90 SE6       29.92S
MANHATTAN      MOCLDY    77  67  71 S7        29.88S
MARYSVILLE     MOCLDY    73  68  83 S8        29.88S
OLATHE IND     PTCLDY    71  67  87 S6        29.95S
OLATHE EXE     PTCLDY    70  67  90 S3        29.94S
SALINA         MOCLDY    80  63  55 S15       29.86S
TOPEKA BILLARD MOCLDY    75  68  78 S8        29.91S
TOPEKA FORBES  MOCLDY    73  68  84 SE5       29.92S
$$


USA.gov is the U.S. government's official web portal to all federal, state and local government web resources and services.